Flag for Lithuania Weather past 2 weeks in Kaunas, Lithuania

Now
61 °F

Broken clouds.


Feels Like: 61 °F
Forecast: 48 / 66 °F
Wind: 5 mph from West

Location: Kaunas

Current Time: Sep 3, 2015 at 12:14:17 PM

Latest Report: Sep 3, 2015 at 11:20 AM


Visibility: N/A

Pressure: 29.98 "Hg

Humidity: 83%

Dew point: 55 °F

Location of KaunasLocation

Historic Weather in Kaunas — Graph

°F

Kaunas temperature yesterday

Maximum temperature yesterday: 68 °F (at 12:20 AM)
Minimum temperature yesterday: 55 °F (at 11:50 PM)
Average temperature yesterday: 62 °F

Past Weeks' High & Low Weather Summary

 TemperatureHumidityPressure
High90 °F (Sep 1, 3:50 PM)100% (Aug 26, 1:00 AM)30.42 "Hg (Aug 26, 1:00 AM)
Low43 °F (Aug 20, 5:50 AM)24% (Aug 25, 5:20 PM)29.65 "Hg (Sep 1, 6:50 PM)
Average66 °F63%30.09 "Hg
* Reported Aug 19 10:20 AM — Sep 3 10:50 AM, Kaunas, Weather by CustomWeather, © 2015

Note: Actual official high and low records may vary slightly from our data, if they occured in-between our weather recording intervals... More about our weather records

Advertising

Kaunas weather history for previous 24 hours

 ConditionsComfort  
Time TempWeatherWind HumidityBarometerVisibility
10:50 AM
Thu, Sep 3
57 °FLow clouds.6 mph94%29.98 "HgN/A
10:20 AM57 °FLow clouds.5 mph94%29.98 "Hg6 mi
9:50 AM55 °FMostly cloudy.5 mph94%29.98 "Hg6 mi
9:20 AM55 °FLow clouds.5 mph94%29.98 "Hg6 mi
8:50 AM54 °FLow clouds.5 mph100%29.98 "Hg4 mi
8:20 AM54 °FLow clouds.5 mph100%29.98 "Hg4 mi
7:50 AM54 °FBroken clouds.2 mph94%29.95 "Hg4 mi
7:20 AM52 °FSleet. Fog.2 mph94%29.95 "Hg2 mi
6:20 AM52 °FSleet. Overcast.2 mph94%29.95 "Hg1 mi
5:50 AM50 °FSleet. Overcast.2 mph100%29.95 "Hg1 mi
5:20 AM50 °FSleet. Overcast.3 mph100%29.95 "Hg4 mi
4:50 AM52 °FSleet. Fog.5 mph94%29.95 "Hg3 mi
4:20 AM50 °FFog.3 mph100%29.95 "Hg1 mi
3:50 AM52 °FFog.5 mph94%29.95 "Hg1 mi
3:20 AM52 °FCool.3 mph100%29.95 "Hg1 mi
2:50 AM52 °FFog.3 mph94%29.95 "Hg2 mi
2:20 AM52 °FFog.5 mph100%29.95 "Hg3 mi
1:50 AM52 °FCool.5 mph100%29.95 "HgN/A
12:20 AM54 °FCool.6 mph100%29.92 "HgN/A
11:50 PM
Wed, Sep 2
55 °FClear.5 mph94%29.92 "Hg10 mi
11:20 PM57 °FClear.6 mph94%29.92 "Hg10 mi
10:50 PM57 °FClear.7 mph94%29.92 "Hg10 mi
10:20 PM59 °FClear.7 mph94%29.92 "Hg10 mi
9:50 PM59 °FPassing clouds.7 mph94%29.92 "HgN/A
9:20 PM59 °FLight rain. Low clouds.8 mph94%29.92 "Hg6 mi
8:50 PM59 °FLight rain. Broken clouds.8 mph94%29.89 "Hg6 mi
8:20 PM59 °FBroken clouds.8 mph94%29.89 "HgN/A
7:50 PM59 °FSprinkles. More clouds than sun.7 mph94%29.89 "Hg6 mi
7:20 PM61 °FSprinkles. Broken clouds.9 mph88%29.89 "Hg4 mi
6:20 PM63 °FScattered showers. Broken clouds.10 mph88%29.86 "HgN/A
5:50 PM63 °FSprinkles. Mostly cloudy.10 mph88%29.86 "HgN/A
5:20 PM64 °FMostly cloudy.9 mph88%29.83 "HgN/A
4:50 PM64 °FLow clouds.10 mph88%29.83 "HgN/A
4:20 PM64 °FLight rain. Fog.12 mph88%29.83 "Hg3 mi
3:50 PM68 °FMostly cloudy.6 mph83%29.80 "HgN/A
3:20 PM68 °FMostly cloudy.6 mph88%29.80 "HgN/A
2:50 PM68 °FMostly cloudy.6 mph88%29.80 "HgN/A
2:20 PM68 °FPartly sunny.6 mph88%29.80 "HgN/A
1:50 PM68 °FPartly sunny.5 mph83%29.80 "HgN/A
1:20 PM66 °FBroken clouds.5 mph94%29.77 "HgN/A
12:50 PM64 °FLight rain. Fog.3 mph100%29.77 "Hg3 mi
12:20 PM64 °FFog.2 mph94%29.77 "Hg3 mi
Weather by CustomWeather, © 2015

See weather overviewHow to use our weather pages